{"data":{"norad_id":37606,"intl_designator":"2011-022B","name":"ST-2","alt_names":[],"object_type":"PAYLOAD","status":"ACTIVE","operator":null,"country":"STCT","launch_date":"2011-05-20","launch_site_code":"FRGUI","launch_vehicle":null,"mission":null,"orbit_class":"UNKNOWN","rcs_meters":5.6234,"size_class":null,"mass_kg":null,"dimensions":null,"purposes":["comms"],"wikipedia_slug":null,"has_3d_model":false,"image_url":null,"decayed_at":null,"tle_current":{"epoch":"2026-05-25T02:26:52.768032Z","epoch_age_seconds":76603,"freshness":"FRESH","line1":"1 37606U 11022B   26145.10199963 -.00000214  00000+0  00000+0 0  9990","line2":"2 37606   0.0243 118.3603 0001949 316.1752 292.8917  1.00271536 55040","mean_motion":1.00271536,"eccentricity":0.0001949,"inclination_deg":0.0243,"raan_deg":118.3603,"arg_perigee_deg":316.1752,"mean_anomaly_deg":292.8917,"bstar":0,"rev_number":5504,"period_min":1436.1004702272,"perigee_km":35778.44684521,"apogee_km":35794.882684938,"semimajor_km":42164.801765074,"source":"CELESTRAK","updated_at":"2026-05-25T13:38:13.901245Z"}}}